Weather History for Anaktuvuk Pass, AK

Change the Weather History Date:

Friday, March 21, 2014

  Actual Average Record
Temperature  
Mean Temperature 4 °F -  
Max Temperature 14 °F 0 °F 35 °F (1998)
Min Temperature -5 °F -11 °F -32 °F (2009)
Degree Days  
Heating Degree Days 60    
Moisture  
Dew Point -5 °F    
Average Humidity 68    
Maximum Humidity 78    
Minimum Humidity 57    
Precipitation  
Precipitation 0.00 in - - ()
Sea Level Pressure  
Sea Level Pressure 30.49 in    
Wind  
Wind Speed 6 mph (SSW)    
Max Wind Speed 13 mph    
Max Gust Speed -    
Visibility 10 miles    
Events      
Averages and records for this station are not official NWS values.
T = Trace of Precipitation, MM = Missing Value Source: NWS Daily Summary

Daily Weather History Graph

Daily Weather History Graph

Search for Another Location

Airport:

Trip Planner

Search our weather history database for the weather conditions in past years. The results will help you decide how hot, cold, wet, or windy it might be!

Date:

Astronomy

Mar. 21, 2014 Rise Set
Actual Time 8:01 AM AKDT 8:28 PM AKDT
Civil Twilight 7:05 AM AKDT 9:25 PM AKDT
Nautical Twilight 5:54 AM AKDT 10:37 PM AKDT
Astronomical Twilight 4:23 AM AKDT 12:10 AM AKDT
Moon 3:18 AM AKDT (3/21) 8:35 AM AKDT (3/21)
Length of Visible Light 14h 20m
Length of Day
12h 27m
Waning Gibbous, 74% of the Moon is Illuminated
Mar 21
Waning Gibbous
Mar 23
Last Quarter
Mar 30
New
Apr 7
First Quarter
Apr 14
Full

Hourly Weather History & Observations

Time (AKDT) Temp. Windchill Dew Point Humidity Pressure Visibility Wind Dir Wind Speed Gust Speed Precip Events Conditions
12:16 AM 1.4 °F -11.3 °F -5.8 °F 72% 30.48 in 10.0 mi SSW 6.9 mph - N/A   Clear
12:36 AM 3.2 °F -9.1 °F -4.0 °F 72% 30.48 in 10.0 mi SSW 6.9 mph - N/A   Clear
12:56 AM 3.2 °F -9.1 °F -2.2 °F 78% 30.48 in 10.0 mi SW 6.9 mph - N/A   Clear
1:16 AM 3.2 °F -9.1 °F -4.0 °F 72% 30.48 in 10.0 mi SSW 6.9 mph - N/A   Clear
1:36 AM 3.2 °F -12.2 °F -4.0 °F 72% 30.48 in 10.0 mi South 10.4 mph - N/A   Clear
1:56 AM 3.2 °F -13.9 °F -5.8 °F 66% 30.48 in 10.0 mi South 12.7 mph - N/A   Clear
2:16 AM 1.4 °F -16.1 °F -5.8 °F 72% 30.48 in 10.0 mi South 12.7 mph - N/A   Clear
2:36 AM 3.2 °F -12.2 °F -4.0 °F 72% 30.48 in 10.0 mi SSW 10.4 mph - N/A   Clear
2:56 AM 1.4 °F -13.5 °F -7.6 °F 66% 30.48 in 10.0 mi SSW 9.2 mph - N/A   Clear
3:16 AM 1.4 °F -12.5 °F -5.8 °F 72% 30.48 in 10.0 mi SSW 8.1 mph - N/A   Clear
3:36 AM 1.4 °F -12.5 °F -7.6 °F 66% 30.48 in 10.0 mi SSW 8.1 mph - N/A   Clear
3:56 AM -0.4 °F -14.7 °F -5.8 °F 78% 30.48 in 10.0 mi South 8.1 mph - N/A   Clear
4:16 AM -0.4 °F -13.4 °F -7.6 °F 72% 30.48 in 10.0 mi SSW 6.9 mph - N/A   Clear
4:36 AM -2.2 °F -15.6 °F -9.4 °F 71% 30.48 in 10.0 mi South 6.9 mph - N/A   Clear
4:56 AM -2.2 °F -15.6 °F -7.6 °F 78% 30.48 in 10.0 mi South 6.9 mph - N/A   Clear
5:16 AM -0.4 °F -14.7 °F -7.6 °F 72% 30.48 in 10.0 mi SSW 8.1 mph - N/A   Clear
5:36 AM -2.2 °F -12.5 °F -9.4 °F 71% 30.48 in 10.0 mi SW 4.6 mph - N/A   Clear
5:56 AM -2.2 °F -14.2 °F -9.4 °F 71% 30.48 in 10.0 mi South 5.8 mph - N/A   Clear
6:16 AM -2.2 °F -14.2 °F -9.4 °F 71% 30.48 in 9.0 mi SSW 5.8 mph - N/A   Clear
6:36 AM -2.2 °F -12.5 °F -9.4 °F 71% 30.48 in 10.0 mi SSW 4.6 mph - N/A   Clear
6:56 AM -4.0 °F -12.4 °F -11.2 °F 71% 30.48 in 10.0 mi South 3.5 mph - N/A   Clear
7:16 AM -4.0 °F -14.6 °F -11.2 °F 71% 30.48 in 10.0 mi SSW 4.6 mph - N/A   Clear
7:36 AM -5.8 °F -18.4 °F -11.2 °F 77% 30.48 in 10.0 mi SSW 5.8 mph - N/A   Clear
7:56 AM -5.8 °F - -11.2 °F 77% 30.48 in 10.0 mi Calm Calm - N/A   Clear
8:16 AM -5.8 °F -16.7 °F - N/A% 30.48 in 10.0 mi SSW 4.6 mph - N/A   Clear
8:36 AM -5.8 °F -14.5 °F -11.2 °F 77% 30.48 in 10.0 mi SSW 3.5 mph - N/A   Clear
8:56 AM -5.8 °F -14.5 °F -11.2 °F 77% 30.48 in 10.0 mi WSW 3.5 mph - N/A   Clear
9:16 AM -5.8 °F - -11.2 °F 77% 30.49 in 9.0 mi Calm Calm - N/A   Scattered Clouds
9:36 AM -5.8 °F -14.5 °F -11.2 °F 77% 30.49 in 10.0 mi SW 3.5 mph - N/A   Mostly Cloudy
9:56 AM -4.0 °F -14.6 °F -9.4 °F 78% 30.49 in 10.0 mi SSW 4.6 mph - N/A   Scattered Clouds
10:16 AM -5.8 °F -14.5 °F -11.2 °F 77% 30.49 in 10.0 mi SSW 3.5 mph - N/A   Clear
10:36 AM -2.2 °F -10.4 °F -9.4 °F 71% 30.49 in 9.0 mi SSW 3.5 mph - N/A   Clear
10:56 AM -0.4 °F -8.3 °F -7.6 °F 72% 30.49 in 10.0 mi SSW 3.5 mph - N/A   Clear
11:16 AM -0.4 °F -10.4 °F -7.6 °F 72% 30.50 in 10.0 mi SSW 4.6 mph - N/A   Clear
11:36 AM 1.4 °F - -5.8 °F 72% 30.50 in 10.0 mi Calm Calm - N/A   Clear
11:56 AM 3.2 °F -4.2 °F -5.8 °F 66% 30.50 in 10.0 mi SSW 3.5 mph - N/A   Clear
12:16 PM 3.2 °F -6.2 °F -5.8 °F 66% 30.50 in 10.0 mi SSW 4.6 mph - N/A   Clear
12:36 PM 3.2 °F -6.2 °F -5.8 °F 66% 30.50 in 10.0 mi SSW 4.6 mph - N/A   Clear
12:56 PM 3.2 °F - -5.8 °F 66% 30.50 in 10.0 mi Calm Calm - N/A   Partly Cloudy
1:16 PM 3.2 °F -4.2 °F -5.8 °F 66% 30.49 in 10.0 mi SSW 3.5 mph - N/A   Clear
1:36 PM 5.0 °F -2.1 °F -4.0 °F 66% 30.50 in 10.0 mi SSW 3.5 mph - N/A   Clear
1:56 PM 5.0 °F -4.1 °F -4.0 °F 66% 30.49 in 10.0 mi SSW 4.6 mph - N/A   Clear
2:16 PM 6.8 °F -0.1 °F -2.2 °F 67% 30.50 in 10.0 mi SSW 3.5 mph - N/A   Clear
2:36 PM 6.8 °F -0.1 °F -2.2 °F 67% 30.50 in 10.0 mi SSW 3.5 mph - N/A   Clear
2:56 PM 8.6 °F - -2.2 °F 62% 30.50 in 10.0 mi Calm Calm - N/A   Clear
3:16 PM 8.6 °F - -2.2 °F 62% 30.50 in 10.0 mi Calm Calm - N/A   Clear
3:36 PM 10.4 °F - -0.4 °F 62% 30.50 in 10.0 mi Calm Calm - N/A   Clear
3:56 PM 8.6 °F - -2.2 °F 62% 30.49 in 10.0 mi Calm Calm - N/A   Clear
4:16 PM 8.6 °F - -2.2 °F 62% 30.49 in 10.0 mi Calm Calm - N/A   Clear
4:36 PM 10.4 °F - -2.2 °F 57% 30.49 in 10.0 mi Calm Calm - N/A   Clear
4:56 PM 12.2 °F - 1.4 °F 62% 30.49 in 10.0 mi Calm Calm - N/A   Clear
5:16 PM 10.4 °F - -0.4 °F 62% 30.49 in 10.0 mi Calm Calm - N/A   Clear
5:36 PM 14.0 °F 5.1 °F 1.4 °F 57% 30.49 in 10.0 mi North 5.8 mph - N/A   Clear
5:56 PM 12.2 °F 2.9 °F -0.4 °F 57% 30.49 in 10.0 mi North 5.8 mph - N/A   Clear
6:16 PM 12.2 °F 1.7 °F 1.4 °F 62% 30.49 in 10.0 mi North 6.9 mph - N/A   Clear
6:36 PM 12.2 °F 4.3 °F -0.4 °F 57% 30.49 in 10.0 mi North 4.6 mph - N/A   Clear
6:56 PM 12.2 °F 6.1 °F -0.4 °F 57% 30.49 in 10.0 mi North 3.5 mph - N/A   Clear
7:16 PM 10.4 °F 2.2 °F -2.2 °F 57% 30.50 in 10.0 mi North 4.6 mph - N/A   Clear
7:36 PM 8.6 °F -1.3 °F -0.4 °F 67% 30.50 in 10.0 mi North 5.8 mph - N/A   Clear
7:56 PM 6.8 °F -3.5 °F -2.2 °F 67% 30.50 in 10.0 mi North 5.8 mph - N/A   Clear
8:16 PM 6.8 °F -6.9 °F -0.4 °F 72% 30.50 in 10.0 mi North 9.2 mph - N/A   Clear
8:36 PM 6.8 °F -2.0 °F -2.2 °F 67% 30.50 in 10.0 mi NNE 4.6 mph - N/A   Clear
8:56 PM 5.0 °F -5.6 °F -2.2 °F 72% 30.50 in 10.0 mi North 5.8 mph - N/A   Clear
9:16 PM 6.8 °F - -2.2 °F 67% 30.50 in 10.0 mi Calm Calm - N/A   Clear
9:36 PM 5.0 °F - -4.0 °F 66% 30.50 in 10.0 mi Calm Calm - N/A   Clear
9:56 PM 6.8 °F - -4.0 °F 61% 30.50 in 10.0 mi Calm Calm - N/A   Clear
10:16 PM 5.0 °F -4.1 °F -5.8 °F 61% 30.50 in 10.0 mi NNE 4.6 mph - N/A   Clear
10:36 PM 3.2 °F -6.2 °F -5.8 °F 66% 30.50 in 10.0 mi NE 4.6 mph - N/A   Clear
10:56 PM 3.2 °F - -5.8 °F 66% 30.50 in 10.0 mi Calm Calm - N/A   Clear
11:16 PM 1.4 °F - -5.8 °F 72% 30.50 in 10.0 mi Calm Calm - N/A   Clear
11:36 PM 3.2 °F - -4.0 °F 72% 30.50 in 10.0 mi Calm Calm - N/A   Clear
11:56 PM -0.4 °F - -9.4 °F 66% 30.51 in 10.0 mi Calm Calm - N/A   Clear